This is the latest recevied weather packets stored in our database for station/object KC1BRV. If no packets are shown the sender has not sent any weather packets the latest 10 day(s).
| Time | Temp. | Humidity | Pressure | Rain* | Wind** | Luminosity | Snow |
|---|---|---|---|---|---|---|---|
| 1787832411 | 17.78° C | 99% | 1019.9 hPa | 0 mm | - | 66 W/m² | - |
| 1787832111 | 17.22° C | 99% | 1019.9 hPa | 0 mm | - | 64 W/m² | - |
| 1787831809 | 17.22° C | 99% | 1020 hPa | 0 mm | - | 34 W/m² | - |
| 1787831504 | 17.22° C | 99% | 1019.8 hPa | 0 mm | - | 35 W/m² | - |
| 1787831203 | 17.22° C | 99% | 1020.1 hPa | 0 mm | - | 32 W/m² | - |
| 1787830899 | 17.22° C | 99% | 1019.9 hPa | 0 mm | - | 44 W/m² | - |
| 1787830599 | 16.67° C | 99% | 1019.9 hPa | 0 mm | - | 66 W/m² | - |
| 1787830298 | 16.67° C | 99% | 1019.9 hPa | 0 mm | - | 46 W/m² | - |
| 1787829992 | 16.67° C | 99% | 1019.7 hPa | 0 mm | - | 52 W/m² | - |
| 1787829692 | 16.67° C | 99% | 1019.9 hPa | 0 mm | - | 41 W/m² | - |
| 1787829387 | 16.67° C | 99% | 1019.8 hPa | 0 mm | - | 24 W/m² | - |
| 1787829083 | 16.67° C | 99% | 1019.9 hPa | 0 mm | - | 23 W/m² | - |
| 1787828778 | 16.67° C | 99% | 1019.8 hPa | 0 mm | - | 23 W/m² | - |
| 1787828475 | 16.67° C | 99% | 1019.8 hPa | 0 mm | - | 20 W/m² | - |
| 1787828174 | 16.67° C | 99% | 1019.9 hPa | 0 mm | - | 18 W/m² | - |
| 1787827872 | 16.11° C | 99% | 1020 hPa | 0 mm | - | 16 W/m² | - |
| 1787827568 | 16.11° C | 99% | 1019.7 hPa | 0 mm | - | 16 W/m² | - |
| 1787827268 | 16.11° C | 99% | 1019.7 hPa | 0 mm | - | 13 W/m² | - |
| 1787826968 | 15.56° C | 99% | 1019.6 hPa | 0 mm | - | 10 W/m² | - |
| 1787826662 | 15.56° C | 99% | 1019.6 hPa | 0 mm | - | 7 W/m² | - |
| 1787826358 | 15.56° C | 99% | 1019.4 hPa | 0 mm | - | 6 W/m² | - |
| 1787826054 | 16.11° C | 99% | 1019.5 hPa | 0 mm | - | 5 W/m² | - |
| 1787825752 | 16.11° C | 99% | 1019.4 hPa | 0 mm | - | 3 W/m² | - |
| 1787825452 | 16.11° C | 99% | 1019.4 hPa | 0 mm | - | 2 W/m² | - |
| 1787825151 | 15.56° C | 99% | 1019.5 hPa | 0 mm | - | 1 W/m² | - |
* Rain latest hour (hover to see other rain measurements)
** Current wind speed in m/s (hover to see current wind gust speed)